COSMOS 1288

Satellite information

Favourite Embed

Satellite Type and Status

PAYLOADIN ORBIT

Key statistics

Satellite COSMOS 1288 at a glance.

Uptime

15986

Days in orbit

Revolutions

≈ 12.5

Per day

Orbit

LEO

Low Earth Orbit

Inclination

74.0

Latest

Satellite identification and parameters

Extended collection of information and parameters for COSMOS 1288.

Object identification

Identified? True

Debris? False

Object name: COSMOS 1288

International designator: 1981-074B

Object number (NORAD): 12637

Object ID (CCSDS): 12637

Country: COMMONWEALTH OF INDEPENDENT STATES (CIS)

Current information (Y/N): Y

RCS size: MEDIUM

Orbital parameters

Period: 115.504 minutes

Inclination: 74.0323 deg

SMA: 7856.441 km

Apoapsis: 1492.131 km

Periapsis: 1464.481 km

RAAN: 278.5132 deg

Eccentricy: 0.0017597

Argument of periapsis: 154.4636 deg

Mean anomaly: 312.1787 deg

Mean motion: 12.46705842 rev/day

Mean motion (dot): -0.0000003 rev/day2

B* drag term: -0.00010032 1/REarth

Two-line elements (TLE)

Creation date: May 12, 2025, 2:31 a.m.

Reference frame: TEME

Reference center: EARTH

Epoch: May 11, 2025, 6:34 p.m. UTC

TLE line 0: 0 COSMOS 1288

TLE line 1: 1 12637U 81074B 25131.77389471 -.00000030 00000-0 -10032-3 0 9991

TLE line 2: 2 12637 74.0323 278.5132 0017597 154.4636 312.1787 12.46705842991610

Live tracking on map

Real-time ground track for satellite COSMOS 1288.

In-orbit conjunctions

There are no conjunctions computed for COSMOS 1288, at the moment. Check back to stay up to date, as we update our databases every day.

Go to all conjunctions

Associated space launch

Military communications satellites

COSMOS 1288 was lifted into orbit during the mission ‘Kosmos-3M | Strela-1M 217-224’, on board a Kosmos-3M space rocket.

The launch took place on Aug. 6, 1981, 11:49 a.m. from 132/2.

For more information about the launch, click the button.

Launch to space Kosmos-3M | Strela-1M 217-224
Kosmos-3M | Strela-1M 217-224

Agency: N/A

Status: Launch Successful

Launch date: Aug. 6, 1981, 11:49 a.m. UTC

Rocket: Kosmos-3M

Launch pad: 132/2

Location: Plesetsk Cosmodrome, Russian Federation

...

Latest news about this satellite

There are no fresh news available about this satellite. Check back as we update our databases every day.


Newsletter sign-up

Weekly statistics, charts and insights to help you stay on top of the space industry.